CAPE
0 0 0 0 0 0 0 0 0 0 26 62 0 0 4 22 50 214 1646 1853 1556 1809 1774 1765 1943 2257 2313 2367 2231 2034 1648 1467 1326 1554 1498 1749 1470 1261 1426 1528 1338 1160 1043 647 279 455 194 119 40
0 0 0 0 0 0 0 0 0 0 0 0 0 0 23 392 586 981 1429 1901 1756 1785 1727 1743 1671 1989 2144 1984 2011 1995 1703 1351 1420 1286 1474 1705 1615 1516 1356 1313 1334 1012 789 566 709 429 69 35 18
0 0 0 0 0 0 0 0 0 0 0 0 0 0 2 473 659 1064 1882 1996 1796 1679 1701 1629 1432 1942 1911 1780 1575 1601 1849 1346 1262 1251 1319 1344 1523 1543 1514 1326 1090 966 675 810 464 129 82 54 6
0 0 0 0 0 0 0 0 0 0 0 0 0 0 265 157 336 803 1850 2131 1950 1827 1658 1678 1531 1898 1753 1810 1758 1663 1825 1527 1290 1224 1267 1309 1377 1535 1272 1177 931 761 552 260 106 91 54 0 0
0 0 0 0 0 0 0 0 0 0 0 0 0 0 0 104 63 337 1621 1896 1905 1883 1818 1597 1291 1381 1623 1764 1782 1664 1507 1478 1342 1137 1309 1388 1428 1315 1057 808 501 320 196 90 24 0 0 0 0
0 0 0 0 0 0 0 0 0 0 0 0 0 0 0 20 17 139 1551 1674 1927 1765 1947 1691 1324 1395 1426 1526 1521 1182 1290 1033 1184 1087 1122 1181 1144 988 636 366 322 228 68 0 0 0 0 0 0
0 0 0 0 0 0 0 0 0 0 0 0 0 0 0 0 2 0 1450 1677 1913 1975 1917 1492 1296 1190 1180 977 850 753 812 880 720 916 862 685 533 462 344 332 288 207 0 0 0 0 0 0 0
0 0 0 0 0 0 0 0 0 0 0 0 0 0 0 0 0 0 132 893 1011 1107 1244 1293 1155 1014 995 799 408 421 533 481 605 576 585 509 473 420 356 308 272 34 0 0 0 0 0 0 0
0 0 0 0 0 0 0 0 0 0 0 0 0 0 0 0 0 0 0 56 247 436 533 1185 1263 1113 827 536 279 214 235 226 163 266 346 422 439 436 372 278 67 0 0 0 0 0 0 0 0
0 0 0 0 0 0 0 0 0 0 0 0 0 0 0 0 0 0 0 0 22 75 320 729 1074 843 622 383 110 115 99 191 141 116 20 328 302 336 435 127 19 0 0 0 0 0 0 0 0
0 0 0 0 0 0 0 0 0 0 0 0 0 0 0 0 0 0 0 0 0 1 39 373 873 1075 578 242 38 4 26 13 139 81 1 3 123 294 172 53 0 0 0 0 0 0 0 0 0
0 0 0 0 0 0 0 0 0 0 0 0 0 0 0 0 0 0 0 0 0 0 0 1 326 538 351 186 95 3 0 1 18 1 6 12 5 121 92 6 0 0 0 0 0 0 0 0 0
0 0 0 0 0 0 0 0 0 0 0 0 0 0 0 0 0 0 0 0 0 0 0 0 0 239 609 330 121 80 47 5 0 0 0 5 35 62 51 13 7 10 11 2 0 0 0 0 0
0 0 0 0 0 0 0 0 0 0 0 0 0 0 0 0 0 0 0 0 0 0 0 0 0 0 380 514 238 144 85 43 1 0 0 9 5 8 60 50 66 50 31 6 2 0 0 0 0
0 0 0 0 0 0 0 0 0 0 0 0 0 0 0 0 0 0 0 0 0 0 0 0 0 0 63 568 465 263 156 62 43 18 4 0 0 8 19 40 33 65 69 34 0 0 0 0 0
0 0 0 0 0 0 0 0 0 0 0 0 0 0 0 0 0 0 0 0 0 0 0 0 0 0 243 501 549 485 292 114 81 72 15 5 18 14 17 27 27 18 24 5 0 20 9 3 0
0 0 0 0 0 0 0 0 0 0 0 0 0 0 0 0 0 0 0 0 0 0 0 0 0 1 474 413 534 461 375 298 356 135 64 27 15 18 2 7 28 38 18 17 5 29 26 1 0
0 0 0 0 0 0 0 0 0 0 0 0 0 0 0 0 0 0 0 0 0 0 0 0 0 1 236 268 246 487 350 477 394 108 122 55 30 54 13 14 37 59 52 25 19 21 19 9 2
0 0 0 0 0 0 0 0 0 0 0 0 0 0 0 0 0 0 0 0 0 0 0 0 0 1 172 99 222 279 250 184 149 154 147 150 94 94 36 61 21 52 3 22 0 0 5 4 0
0 0 0 0 0 0 0 0 0 0 0 0 0 0 0 0 0 0 0 0 0 0 0 0 2 3 49 209 199 117 232 208 142 37 70 119 116 156 122 88 36 15 8 18 13 0 3 1 0
0 0 0 0 0 0 0 0 0 0 0 0 0 0 0 0 0 0 0 0 0 0 0 0 3 5 7 77 59 23 42 96 82 147 39 133 90 120 97 97 21 8 20 40 10 18 5 0 0
0 0 0 0 0 0 0 0 0 0 0 0 0 0 0 0 0 0 0 0 0 0 0 0 4 5 9 26 14 24 31 30 27 51 64 104 161 142 62 29 25 46 45 43 27 20 13 36 24
0 0 0 0 0 0 0 0 0 0 0 0 0 0 0 0 0 0 0 0 0 0 0 0 0 1 7 10 13 10 10 21 55 71 61 64 75 98 46 44 8 21 58 10 18 29 24 4 7
0 0 0 0 0 0 0 0 0 0 0 0 0 0 0 0 0 0 0 0 0 0 0 0 0 0 0 0 8 16 16 41 75 84 107 58 52 51 32 15 15 16 8 33 22 26 4 7 4
0 0 0 0 0 0 0 0 0 0 0 0 0 0 0 0 0 0 0 0 0 0 0 0 0 0 0 0 0 3 18 19 84 56 58 72 28 28 25 25 3 25 21 18 12 21 23 9 3
0 0 0 0 0 0 0 0 0 0 0 0 0 0 0 0 0 0 0 0 0 0 0 0 0 0 0 0 0 0 0 2 43 33 39 47 0 24 12 8 5 0 10 3 9 8 23 3 7
0 0 0 0 0 0 0 0 0 0 0 0 0 0 0 0 0 0 0 0 0 0 0 0 0 0 0 0 0 0 0 0 0 0 0 28 6 3 9 2 1 5 4 1 1 17 14 7 8
0 0 0 0 0 0 0 0 0 0 0 0 0 0 0 0 0 0 0 0 0 0 0 0 0 0 0 0 0 0 0 0 0 0 0 0 0 0 0 0 4 12 10 11 2 1 4 17 11
0 0 0 0 0 0 0 0 0 0 0 0 0 0 0 0 0 0 0 0 0 0 0 0 0 0 0 0 0 0 0 0 0 0 0 0 0 0 0 0 0 0 1 3 5 2 0 0 4
0 0 0 0 0 0 0 0 0 2 6 4 3 2 0 0 0 0 0 0 0 0 0 0 0 0 0 0 0 0 0 0 0 0 0 0 0 0 0 0 0 0 0 1 14 11 5 0 0
CIN
0 0 0 0 0 0 0 -4 0 -8 -83 -111 0 0 -48 -17 -55 -43 -12 -10 -2 -12 -25 -27 -21 -5 -8 -2 -1 -2 -8 -10 -12 -10 -11 -6 -7 -9 -3 -1 -2 -1 0 0 -20 -5 -26 -49 -96
0 0 0 0 0 0 0 0 0 0 0 -18 0 0 -52 -2 -13 -16 -22 -12 -2 -6 -21 -13 -26 -7 -5 -8 -6 -1 -6 -11 -10 -12 -9 -6 -5 -3 -3 -1 -1 -2 -1 -1 0 -8 -54 -39 -40
0 0 0 0 0 0 0 0 0 0 0 0 0 0 -44 -30 -31 -17 -3 -3 -9 -4 -8 -5 -52 -14 -10 -11 -19 -13 -2 -9 -9 -8 -10 -8 -4 -3 -1 -1 -2 -2 -3 -1 -3 -34 -36 -38 -31
0 0 0 0 0 0 0 0 0 0 0 0 0 0 -26 -24 -62 -40 -12 -2 -2 -5 -9 -7 -47 -12 -10 -7 -6 -13 -2 -4 -5 -6 -7 -4 -4 -1 -2 -1 -2 0 -1 -13 -32 -32 -40 0 0
0 0 0 0 0 0 0 0 0 0 0 0 0 0 -11 -57 -65 -115 -43 -19 -2 -4 -5 -14 -62 -31 -7 -16 -6 -5 -5 -3 -4 -6 -4 -3 -1 0 0 0 -6 -18 -21 -36 -68 -9 0 0 0
0 0 0 0 0 0 0 0 0 0 0 0 0 0 0 -79 -108 -52 -34 -30 -4 -7 -3 -3 -9 -24 -22 -8 -20 -13 -6 -12 -5 -4 -4 -2 0 0 0 -9 -17 -7 -13 0 0 0 0 0 0
0 0 0 0 0 0 0 0 0 0 0 0 0 0 0 0 -58 0 -30 -31 -2 -9 -13 -13 -8 -21 -22 -29 -32 -29 -19 -15 -9 -7 -5 -2 -3 -1 -14 -4 -4 -3 0 0 0 0 0 0 0
0 0 0 0 0 0 0 0 0 0 0 0 0 0 0 0 0 0 -226 -32 -24 -7 -5 -17 -20 -26 -29 -13 -34 -20 -13 -7 -13 -15 -1 0 0 -2 0 0 0 -48 0 0 0 0 0 0 0
0 0 0 0 0 0 0 0 0 0 0 0 0 0 0 0 0 0 0 -53 -64 -73 -53 -16 -15 -17 -34 -21 -64 -35 -32 -9 -5 -5 -13 -5 -1 0 0 -1 -21 -10 0 0 0 0 0 0 0
0 0 0 0 0 0 0 0 0 0 0 0 0 0 0 0 0 0 0 0 -44 -69 -89 -55 -27 -30 -31 -39 -81 -49 -31 0 0 0 -1 0 0 0 0 -7 -71 0 0 0 0 0 0 0 0
0 0 0 0 0 0 0 0 0 0 0 0 0 0 0 0 0 0 0 0 0 -3 -58 -57 -14 -3 -37 -69 -46 -9 -12 -2 0 0 0 0 0 0 -3 -14 0 0 0 0 0 0 0 0 0
0 0 0 0 0 0 0 0 0 0 0 0 0 0 0 0 0 0 0 0 0 0 0 -36 -81 -45 -53 -42 -31 -146 -15 -16 -49 -5 -3 -1 0 0 0 -31 0 0 -7 0 0 0 0 0 0
0 0 0 0 0 0 0 0 0 0 0 0 0 0 0 0 0 0 0 0 0 0 0 0 0 -109 -23 -64 -40 -28 -29 -51 0 0 0 -23 0 0 0 -20 -13 -11 -25 -55 0 0 0 0 0
0 0 0 0 0 0 0 0 0 0 0 0 0 0 0 0 0 0 0 0 0 0 0 0 0 0 -41 -27 -73 -40 -36 -27 -15 0 0 -43 -44 0 -3 -5 0 0 -2 -20 -22 0 0 0 0
0 0 0 0 0 0 0 0 0 0 0 0 0 0 0 0 0 0 0 0 0 0 0 0 0 0 -93 -14 -25 -60 -48 -37 -25 -28 -31 0 0 -5 0 0 0 0 0 -4 -1 0 0 0 0
0 0 0 0 0 0 0 0 0 0 0 0 0 0 0 0 0 0 0 0 0 0 0 0 0 0 -79 -6 -4 -18 -42 -58 -36 -30 -39 -19 -9 -48 -51 -2 0 -1 0 -4 0 0 -3 -15 0
0 0 0 0 0 0 0 0 0 0 0 0 0 0 0 0 0 0 0 0 0 0 0 0 0 -42 -4 -7 0 -1 -21 -17 -4 -41 -46 -21 -21 -49 -2 -16 -8 -3 -2 -2 0 0 -2 -1 -1
0 0 0 0 0 0 0 0 0 0 0 0 0 0 0 0 0 0 0 0 0 0 0 0 0 0 -10 -2 -1 0 -6 -2 -9 -42 -28 -27 -16 -9 -7 -8 0 0 -1 0 -1 0 0 -1 -1
0 0 0 0 0 0 0 0 0 0 0 0 0 0 0 0 0 0 0 0 0 0 0 0 0 -119 -13 -23 0 0 -4 -7 -23 -43 -26 -8 -4 0 0 0 -3 -5 -32 -11 0 0 0 -3 0
0 0 0 0 0 0 0 0 0 0 0 0 0 0 0 0 0 0 0 0 0 0 0 0 0 0 -46 -4 -8 -6 0 0 -8 -45 -34 -12 -5 0 0 0 -9 -4 -14 -2 -3 0 0 0 0
0 0 0 0 0 0 0 0 0 0 0 0 0 0 0 0 0 0 0 0 0 0 0 0 0 0 0 -22 -32 -43 -15 -2 -4 -6 -43 -2 -4 -1 0 0 -24 -35 -3 0 -1 0 0 0 0
0 0 0 0 0 0 0 0 0 0 0 0 0 0 0 0 0 0 0 0 0 0 0 0 0 0 0 -48 -71 -55 -39 -28 -14 -4 -1 -1 -1 0 0 -3 0 -12 -19 0 0 -1 -2 0 0
0 0 0 0 0 0 0 0 0 0 0 0 0 0 0 0 0 0 0 0 0 0 0 0 0 0 0 0 -38 -41 -46 -36 -3 -3 0 0 -2 -3 0 0 -6 -7 -13 -17 -1 -1 -1 0 0
0 0 0 0 0 0 0 0 0 0 0 0 0 0 0 0 0 0 0 0 0 0 0 0 0 0 0 0 0 -2 -2 -17 -2 0 0 0 0 -1 -1 -1 -1 -1 0 -9 0 0 0 -1 0
0 0 0 0 0 0 0 0 0 0 0 0 0 0 0 0 0 0 0 0 0 0 0 0 0 0 0 0 0 0 -11 -4 0 0 0 0 -1 -2 -1 0 -1 0 0 0 -1 0 0 0 0
0 0 0 0 0 0 0 0 0 0 0 0 0 0 0 0 0 0 0 0 0 0 0 0 0 0 0 0 0 0 0 -3 0 -1 0 -1 0 0 -4 -4 -1 0 -1 -15 -1 -1 0 -18 0
0 0 0 0 0 0 0 0 0 0 0 0 0 0 0 0 0 0 0 0 0 0 0 0 0 0 0 0 0 0 0 0 0 0 0 -1 -2 0 0 -7 -5 -6 0 0 0 0 0 0 0
0 0 0 0 0 0 0 0 0 0 0 0 0 0 0 0 0 0 0 0 0 0 0 0 0 0 0 0 0 0 0 0 0 0 0 0 0 0 0 0 -1 -1 0 0 -1 -1 0 0 0
0 0 0 0 0 0 0 0 0 0 0 0 0 0 0 0 0 0 0 0 0 0 0 0 0 0 0 0 0 0 0 0 0 0 0 0 0 0 0 0 0 0 -3 -3 -1 -1 0 0 0
0 0 0 0 0 0 0 0 0 -1 -1 -5 -3 -3 0 0 0 0 0 0 0 0 0 0 0 0 0 0 0 0 0 0 0 0 0 0 0 0 0 0 0 0 0 -10 0 -1 0 0 0
Wind_Speed
nan nan nan nan nan nan nan nan nan nan nan nan nan nan nan nan nan 25 26 25 25 34 31 27 21 20 26 24 24 23 21 21 23 19 15 14 14 15 16 17 16 16 19 21 22 22 21 20 nan
nan nan nan nan nan nan nan nan nan nan nan nan nan nan nan 36 25 26 28 26 25 30 30 25 24 26 20 20 21 25 24 22 24 22 20 20 18 16 17 19 19 19 19 25 25 26 nan nan nan
nan nan nan nan nan nan nan nan nan nan nan nan nan nan nan 27 26 20 29 24 26 23 30 31 32 21 29 28 17 20 24 23 23 22 22 22 21 21 20 20 21 22 23 28 30 24 nan nan nan
nan nan nan nan nan nan nan nan nan nan nan nan nan nan 31 32 25 24 29 27 28 25 29 32 28 27 32 30 27 21 22 23 24 23 22 22 24 26 26 26 28 32 33 33 30 nan nan nan nan
nan nan nan nan nan nan nan nan nan nan nan nan nan nan nan 31 nan 27 28 25 30 30 26 30 27 24 27 34 29 25 28 26 24 22 26 28 30 33 34 35 35 34 34 nan nan nan nan nan nan
nan nan nan nan nan nan nan nan nan nan nan nan nan nan nan nan nan 27 28 28 30 32 33 30 32 30 37 26 32 23 26 27 27 28 29 30 35 35 37 40 37 38 nan nan nan nan nan nan nan
nan nan nan nan nan nan nan nan nan nan nan nan nan nan nan nan nan nan 26 25 29 38 37 36 29 33 31 23 20 23 25 27 25 29 33 34 37 37 37 39 41 40 nan nan nan nan nan nan nan
nan nan nan nan nan nan nan nan nan nan nan nan nan nan nan nan nan nan 33 33 36 39 39 40 39 34 32 39 36 38 45 36 27 31 35 38 41 43 42 35 39 nan nan nan nan nan nan nan nan
nan nan nan nan nan nan nan nan nan nan nan nan nan nan nan nan nan nan nan nan 33 36 37 41 43 46 51 39 38 43 45 49 45 31 34 40 36 40 40 44 nan nan nan nan nan nan nan nan nan
nan nan nan nan nan nan nan nan nan nan nan nan nan nan nan nan nan nan nan nan nan nan 37 41 44 47 45 41 45 41 nan 44 42 40 nan 36 41 42 45 49 nan nan nan nan nan nan nan nan nan
nan nan nan nan nan nan nan nan nan nan nan nan nan nan nan nan nan nan nan nan nan nan nan 38 43 43 44 48 nan nan nan nan 41 nan nan nan 43 46 48 nan nan nan nan nan nan nan nan nan nan
nan nan nan nan nan nan nan nan nan nan nan nan nan nan nan nan nan nan nan nan nan nan nan nan 40 39 47 45 nan nan nan nan nan nan nan nan nan 51 nan nan nan nan nan nan nan nan nan nan nan
nan nan nan nan nan nan nan nan nan nan nan nan nan nan nan nan nan nan nan nan nan nan nan nan nan 42 41 42 49 nan nan nan nan nan nan nan nan nan nan nan nan nan nan nan nan nan nan nan nan
nan nan nan nan nan nan nan nan nan nan nan nan nan nan nan nan nan nan nan nan nan nan nan nan nan nan 43 45 46 45 nan nan nan nan nan nan nan nan nan nan nan nan nan nan nan nan nan nan nan
nan nan nan nan nan nan nan nan nan nan nan nan nan nan nan nan nan nan nan nan nan nan nan nan nan nan nan 46 46 48 48 nan nan nan nan nan nan nan nan nan nan nan nan nan nan nan nan nan nan
nan nan nan nan nan nan nan nan nan nan nan nan nan nan nan nan nan nan nan nan nan nan nan nan nan nan 50 48 47 52 49 52 nan nan nan nan nan nan nan nan nan nan nan nan nan nan nan nan nan
nan nan nan nan nan nan nan nan nan nan nan nan nan nan nan nan nan nan nan nan nan nan nan nan nan nan 54 57 51 51 51 50 48 50 nan nan nan nan nan nan nan nan nan nan nan nan nan nan nan
nan nan nan nan nan nan nan nan nan nan nan nan nan nan nan nan nan nan nan nan nan nan nan nan nan nan 51 53 55 52 51 49 46 43 34 nan nan nan nan nan nan nan nan nan nan nan nan nan nan
nan nan nan nan nan nan nan nan nan nan nan nan nan nan nan nan nan nan nan nan nan nan nan nan nan nan 41 nan 51 53 51 47 45 44 45 36 nan nan nan nan nan nan nan nan nan nan nan nan nan
nan nan nan nan nan nan nan nan nan nan nan nan nan nan nan nan nan nan nan nan nan nan nan nan nan nan nan 43 48 50 55 51 46 nan nan 46 43 41 34 nan nan nan nan nan nan nan nan nan nan
nan nan nan nan nan nan nan nan nan nan nan nan nan nan nan nan nan nan nan nan nan nan nan nan nan nan nan nan nan nan nan nan nan 46 nan 37 nan 47 nan nan nan nan nan nan nan nan nan nan nan
nan nan nan nan nan nan nan nan nan nan nan nan nan nan nan nan nan nan nan nan nan nan nan nan nan nan nan nan nan nan nan nan nan nan nan 46 43 41 nan nan nan nan nan nan nan nan nan nan nan
nan nan nan nan nan nan nan nan nan nan nan nan nan nan nan nan nan nan nan nan nan nan nan nan nan nan nan nan nan nan nan nan nan nan nan nan nan nan nan nan nan nan nan nan nan nan nan nan nan
nan nan nan nan nan nan nan nan nan nan nan nan nan nan nan nan nan nan nan nan nan nan nan nan nan nan nan nan nan nan nan nan nan nan 52 nan nan nan nan nan nan nan nan nan nan nan nan nan nan
nan nan nan nan nan nan nan nan nan nan nan nan nan nan nan nan nan nan nan nan nan nan nan nan nan nan nan nan nan nan nan nan nan nan nan nan nan nan nan nan nan nan nan nan nan nan nan nan nan
nan nan nan nan nan nan nan nan nan nan nan nan nan nan nan nan nan nan nan nan nan nan nan nan nan nan nan nan nan nan nan nan nan nan nan nan nan nan nan nan nan nan nan nan nan nan nan nan nan
nan nan nan nan nan nan nan nan nan nan nan nan nan nan nan nan nan nan nan nan nan nan nan nan nan nan nan nan nan nan nan nan nan nan nan nan nan nan nan nan nan nan nan nan nan nan nan nan nan
nan nan nan nan nan nan nan nan nan nan nan nan nan nan nan nan nan nan nan nan nan nan nan nan nan nan nan nan nan nan nan nan nan nan nan nan nan nan nan nan nan nan nan nan nan nan nan nan nan
nan nan nan nan nan nan nan nan nan nan nan nan nan nan nan nan nan nan nan nan nan nan nan nan nan nan nan nan nan nan nan nan nan nan nan nan nan nan nan nan nan nan nan nan nan nan nan nan nan
nan nan nan nan nan nan nan nan nan nan nan nan nan nan nan nan nan nan nan nan nan nan nan nan nan nan nan nan nan nan nan nan nan nan nan nan nan nan nan nan nan nan nan nan nan nan nan nan nan
Wind_Direction
nan nan nan nan nan nan nan nan nan nan nan nan nan nan nan nan nan 266 259 239 249 253 255 266 263 253 252 242 253 245 244 241 240 248 256 258 257 260 267 270 268 271 275 271 266 260 247 244 nan
nan nan nan nan nan nan nan nan nan nan nan nan nan nan nan 265 243 272 249 235 239 258 253 257 251 242 249 244 242 245 239 238 243 247 253 254 254 256 262 267 267 273 275 275 265 250 nan nan nan
nan nan nan nan nan nan nan nan nan nan nan nan nan nan nan 256 249 254 259 245 241 242 253 252 249 249 250 244 246 243 243 238 241 244 248 253 255 256 258 261 263 270 274 272 275 254 nan nan nan
nan nan nan nan nan nan nan nan nan nan nan nan nan nan 271 251 255 246 237 241 238 241 251 250 248 240 251 250 238 244 248 248 246 248 252 254 256 256 256 257 260 264 264 262 273 nan nan nan nan
nan nan nan nan nan nan nan nan nan nan nan nan nan nan nan 257 nan 246 251 239 239 237 243 256 244 239 240 252 248 245 249 251 251 253 255 256 260 260 259 261 261 262 262 nan nan nan nan nan nan
nan nan nan nan nan nan nan nan nan nan nan nan nan nan nan nan nan 245 250 243 239 238 239 239 247 235 234 217 246 244 249 252 257 263 263 265 262 263 264 260 258 259 nan nan nan nan nan nan nan
nan nan nan nan nan nan nan nan nan nan nan nan nan nan nan nan nan nan 249 246 246 245 237 234 241 237 245 232 216 229 243 249 257 264 269 264 261 259 259 263 263 260 nan nan nan nan nan nan nan
nan nan nan nan nan nan nan nan nan nan nan nan nan nan nan nan nan nan 253 236 230 233 234 240 243 240 234 229 228 235 230 224 257 266 265 262 258 255 254 253 258 nan nan nan nan nan nan nan nan
nan nan nan nan nan nan nan nan nan nan nan nan nan nan nan nan nan nan nan nan 244 229 227 238 238 246 252 237 235 236 231 234 224 223 268 259 255 256 252 251 nan nan nan nan nan nan nan nan nan
nan nan nan nan nan nan nan nan nan nan nan nan nan nan nan nan nan nan nan nan nan nan 226 227 243 248 251 242 237 236 nan 239 235 233 nan 242 248 251 248 245 nan nan nan nan nan nan nan nan nan
nan nan nan nan nan nan nan nan nan nan nan nan nan nan nan nan nan nan nan nan nan nan nan 232 234 247 244 245 nan nan nan nan 232 nan nan nan 246 241 243 nan nan nan nan nan nan nan nan nan nan
nan nan nan nan nan nan nan nan nan nan nan nan nan nan nan nan nan nan nan nan nan nan nan nan 231 235 246 252 nan nan nan nan nan nan nan nan nan 231 nan nan nan nan nan nan nan nan nan nan nan
nan nan nan nan nan nan nan nan nan nan nan nan nan nan nan nan nan nan nan nan nan nan nan nan nan 232 245 248 252 nan nan nan nan nan nan nan nan nan nan nan nan nan nan nan nan nan nan nan nan
nan nan nan nan nan nan nan nan nan nan nan nan nan nan nan nan nan nan nan nan nan nan nan nan nan nan 235 248 255 255 nan nan nan nan nan nan nan nan nan nan nan nan nan nan nan nan nan nan nan
nan nan nan nan nan nan nan nan nan nan nan nan nan nan nan nan nan nan nan nan nan nan nan nan nan nan nan 244 248 254 259 nan nan nan nan nan nan nan nan nan nan nan nan nan nan nan nan nan nan
nan nan nan nan nan nan nan nan nan nan nan nan nan nan nan nan nan nan nan nan nan nan nan nan nan nan 239 243 246 252 257 260 nan nan nan nan nan nan nan nan nan nan nan nan nan nan nan nan nan
nan nan nan nan nan nan nan nan nan nan nan nan nan nan nan nan nan nan nan nan nan nan nan nan nan nan 235 247 244 249 252 253 260 270 nan nan nan nan nan nan nan nan nan nan nan nan nan nan nan
nan nan nan nan nan nan nan nan nan nan nan nan nan nan nan nan nan nan nan nan nan nan nan nan nan nan 237 246 248 250 253 253 259 262 269 nan nan nan nan nan nan nan nan nan nan nan nan nan nan
nan nan nan nan nan nan nan nan nan nan nan nan nan nan nan nan nan nan nan nan nan nan nan nan nan nan 244 nan 251 254 257 256 256 260 260 261 nan nan nan nan nan nan nan nan nan nan nan nan nan
nan nan nan nan nan nan nan nan nan nan nan nan nan nan nan nan nan nan nan nan nan nan nan nan nan nan nan 245 247 246 256 258 256 nan nan 262 263 265 270 nan nan nan nan nan nan nan nan nan nan
nan nan nan nan nan nan nan nan nan nan nan nan nan nan nan nan nan nan nan nan nan nan nan nan nan nan nan nan nan nan nan nan nan 253 nan 260 nan 271 nan nan nan nan nan nan nan nan nan nan nan
nan nan nan nan nan nan nan nan nan nan nan nan nan nan nan nan nan nan nan nan nan nan nan nan nan nan nan nan nan nan nan nan nan nan nan 255 260 256 nan nan nan nan nan nan nan nan nan nan nan
nan nan nan nan nan nan nan nan nan nan nan nan nan nan nan nan nan nan nan nan nan nan nan nan nan nan nan nan nan nan nan nan nan nan nan nan nan nan nan nan nan nan nan nan nan nan nan nan nan
nan nan nan nan nan nan nan nan nan nan nan nan nan nan nan nan nan nan nan nan nan nan nan nan nan nan nan nan nan nan nan nan nan nan 248 nan nan nan nan nan nan nan nan nan nan nan nan nan nan
nan nan nan nan nan nan nan nan nan nan nan nan nan nan nan nan nan nan nan nan nan nan nan nan nan nan nan nan nan nan nan nan nan nan nan nan nan nan nan nan nan nan nan nan nan nan nan nan nan
nan nan nan nan nan nan nan nan nan nan nan nan nan nan nan nan nan nan nan nan nan nan nan nan nan nan nan nan nan nan nan nan nan nan nan nan nan nan nan nan nan nan nan nan nan nan nan nan nan
nan nan nan nan nan nan nan nan nan nan nan nan nan nan nan nan nan nan nan nan nan nan nan nan nan nan nan nan nan nan nan nan nan nan nan nan nan nan nan nan nan nan nan nan nan nan nan nan nan
nan nan nan nan nan nan nan nan nan nan nan nan nan nan nan nan nan nan nan nan nan nan nan nan nan nan nan nan nan nan nan nan nan nan nan nan nan nan nan nan nan nan nan nan nan nan nan nan nan
nan nan nan nan nan nan nan nan nan nan nan nan nan nan nan nan nan nan nan nan nan nan nan nan nan nan nan nan nan nan nan nan nan nan nan nan nan nan nan nan nan nan nan nan nan nan nan nan nan
nan nan nan nan nan nan nan nan nan nan nan nan nan nan nan nan nan nan nan nan nan nan nan nan nan nan nan nan nan nan nan nan nan nan nan nan nan nan nan nan nan nan nan nan nan nan nan nan nan